Year,Month,Day,Hour,Minute,Value (Times are PST for temperature in C)
2021,12,01,00,00,11.00
2021,12,01,00,01,11.00
2021,12,01,00,02,11.10
2021,12,01,00,03,11.10
2021,12,01,00,04,11.10
2021,12,01,00,05,11.10
2021,12,01,00,06,11.10
2021,12,01,00,07,11.10
2021,12,01,00,08,11.20
2021,12,01,00,09,11.20
2021,12,01,00,10,11.20
2021,12,01,00,11,11.20
2021,12,01,00,12,11.20
2021,12,01,00,13,11.20
2021,12,01,00,14,11.20
2021,12,01,00,15,11.10
2021,12,01,00,16,11.10
2021,12,01,00,17,11.10
2021,12,01,00,18,11.10
2021,12,01,00,19,11.10
2021,12,01,00,20,11.10
2021,12,01,00,21,11.10
2021,12,01,00,22,11.10
2021,12,01,00,23,11.10
2021,12,01,00,24,11.10
2021,12,01,00,25,11.10
2021,12,01,00,26,11.10
2021,12,01,00,27,11.10
2021,12,01,00,28,11.10
2021,12,01,00,29,11.10
2021,12,01,00,30,11.10
2021,12,01,00,31,11.10
2021,12,01,00,32,11.10
2021,12,01,00,33,11.10
2021,12,01,00,34,11.10
2021,12,01,00,35,11.10
2021,12,01,00,36,11.10
2021,12,01,00,37,11.10
2021,12,01,00,38,11.10
2021,12,01,00,39,11.10
2021,12,01,00,40,11.10
2021,12,01,00,41,11.10
2021,12,01,00,42,11.10
2021,12,01,00,43,11.10
2021,12,01,00,44,11.10
2021,12,01,00,45,11.10
2021,12,01,00,46,11.10
2021,12,01,00,47,11.00
2021,12,01,00,48,11.00
2021,12,01,00,49,11.00
2021,12,01,00,50,11.00
2021,12,01,00,51,11.00
2021,12,01,00,52,11.00
2021,12,01,00,53,10.90
2021,12,01,00,54,10.90
2021,12,01,00,55,10.90
2021,12,01,00,56,10.90
2021,12,01,00,57,10.90
2021,12,01,00,58,10.80
2021,12,01,00,59,10.80
2021,12,01,01,00,10.80
2021,12,01,01,01,10.80
2021,12,01,01,02,10.80
2021,12,01,01,03,10.80
2021,12,01,01,04,10.80
2021,12,01,01,05,10.80
2021,12,01,01,06,10.80
2021,12,01,01,07,10.80
2021,12,01,01,08,10.80
2021,12,01,01,09,10.80
2021,12,01,01,10,10.80
2021,12,01,01,11,10.80
2021,12,01,01,12,10.70
2021,12,01,01,13,10.70
2021,12,01,01,14,10.70
2021,12,01,01,15,10.70
2021,12,01,01,16,10.70
2021,12,01,01,17,10.70
2021,12,01,01,18,10.70
2021,12,01,01,19,10.70
2021,12,01,01,20,10.70
2021,12,01,01,21,10.70
2021,12,01,01,22,10.70
2021,12,01,01,23,10.80
2021,12,01,01,24,10.80
2021,12,01,01,25,10.80
2021,12,01,01,26,10.80
2021,12,01,01,27,10.80
2021,12,01,01,28,10.80
2021,12,01,01,29,10.90
2021,12,01,01,30,10.90
2021,12,01,01,31,10.90
2021,12,01,01,32,10.90
2021,12,01,01,33,11.00
2021,12,01,01,34,11.00
2021,12,01,01,35,11.00
2021,12,01,01,36,11.10
2021,12,01,01,37,11.10
2021,12,01,01,38,11.10
2021,12,01,01,39,11.10
2021,12,01,01,40,11.10
2021,12,01,01,41,11.10
2021,12,01,01,42,11.10
2021,12,01,01,43,11.10
2021,12,01,01,44,11.20
2021,12,01,01,45,11.20
2021,12,01,01,46,11.20
2021,12,01,01,47,11.20
2021,12,01,01,48,11.10
2021,12,01,01,49,11.10
2021,12,01,01,50,11.10
2021,12,01,01,51,11.10
2021,12,01,01,52,11.10
2021,12,01,01,53,11.10
2021,12,01,01,54,11.10
2021,12,01,01,55,11.10
2021,12,01,01,56,11.10
2021,12,01,01,57,11.10
2021,12,01,01,58,11.10
2021,12,01,01,59,11.10
2021,12,01,02,00,11.10
2021,12,01,02,01,11.10
2021,12,01,02,02,11.10
2021,12,01,02,03,11.10
2021,12,01,02,04,11.10
2021,12,01,02,05,11.10
2021,12,01,02,06,11.10
2021,12,01,02,07,11.10
2021,12,01,02,08,11.10
2021,12,01,02,09,11.10
2021,12,01,02,10,11.10
2021,12,01,02,11,11.10
2021,12,01,02,12,11.10
2021,12,01,02,13,11.10
2021,12,01,02,14,11.10
2021,12,01,02,15,11.10
2021,12,01,02,16,11.10
2021,12,01,02,17,11.10
2021,12,01,02,18,11.10
2021,12,01,02,19,11.00
2021,12,01,02,20,11.00
2021,12,01,02,21,11.00
2021,12,01,02,22,11.00
2021,12,01,02,23,11.10
2021,12,01,02,24,11.10
2021,12,01,02,25,11.10
2021,12,01,02,26,11.10
2021,12,01,02,27,11.20
2021,12,01,02,28,11.20
2021,12,01,02,29,11.30
2021,12,01,02,30,11.50
2021,12,01,02,31,11.70
2021,12,01,02,32,12.00
2021,12,01,02,33,12.20
2021,12,01,02,34,12.40
2021,12,01,02,35,12.60
2021,12,01,02,36,12.70
2021,12,01,02,37,12.80
2021,12,01,02,38,12.80
2021,12,01,02,39,12.80
2021,12,01,02,40,12.80
2021,12,01,02,41,12.80
2021,12,01,02,42,12.80
2021,12,01,02,43,12.80
2021,12,01,02,44,12.80
2021,12,01,02,45,12.80
2021,12,01,02,46,12.80
2021,12,01,02,47,12.90
2021,12,01,02,48,12.90
2021,12,01,02,49,12.90
2021,12,01,02,50,12.90
2021,12,01,02,51,12.80
2021,12,01,02,52,12.80
2021,12,01,02,53,12.80
2021,12,01,02,54,12.80
2021,12,01,02,55,12.70
2021,12,01,02,56,12.70
2021,12,01,02,57,12.70
2021,12,01,02,58,12.80
2021,12,01,02,59,12.80
2021,12,01,03,00,12.90
2021,12,01,03,01,13.00
2021,12,01,03,02,13.00
2021,12,01,03,03,13.00
2021,12,01,03,04,13.00
2021,12,01,03,05,13.00
2021,12,01,03,06,13.00
2021,12,01,03,07,13.10
2021,12,01,03,08,13.10
2021,12,01,03,09,13.10
2021,12,01,03,10,13.10
2021,12,01,03,11,13.10
2021,12,01,03,12,13.10
2021,12,01,03,13,13.10
2021,12,01,03,14,13.10
2021,12,01,03,15,13.10
2021,12,01,03,16,13.10
2021,12,01,03,17,13.10
2021,12,01,03,18,13.10
2021,12,01,03,19,13.10
2021,12,01,03,20,13.10
2021,12,01,03,21,13.00
2021,12,01,03,22,13.00
2021,12,01,03,23,12.70
2021,12,01,03,24,12.50
2021,12,01,03,25,12.30
2021,12,01,03,26,12.10
2021,12,01,03,27,12.00
2021,12,01,03,28,11.90
2021,12,01,03,29,11.80
2021,12,01,03,30,11.80
2021,12,01,03,31,11.70
2021,12,01,03,32,11.60
2021,12,01,03,33,11.60
2021,12,01,03,34,11.50
2021,12,01,03,35,11.40
2021,12,01,03,36,11.40
2021,12,01,03,37,11.40
2021,12,01,03,38,11.30
2021,12,01,03,39,11.30
2021,12,01,03,40,11.30
2021,12,01,03,41,11.20
2021,12,01,03,42,11.20
2021,12,01,03,43,11.20
2021,12,01,03,44,11.10
2021,12,01,03,45,11.10
2021,12,01,03,46,11.10
2021,12,01,03,47,11.00
2021,12,01,03,48,11.00
2021,12,01,03,49,10.90
2021,12,01,03,50,10.90
2021,12,01,03,51,10.90
2021,12,01,03,52,10.80
2021,12,01,03,53,10.80
2021,12,01,03,54,10.80
2021,12,01,03,55,11.00
2021,12,01,03,56,11.10
2021,12,01,03,57,11.20
2021,12,01,03,58,11.40
2021,12,01,03,59,11.60
2021,12,01,04,00,11.80
2021,12,01,04,01,12.00
2021,12,01,04,02,12.20
2021,12,01,04,03,12.40
2021,12,01,04,04,12.50
2021,12,01,04,05,12.60
2021,12,01,04,06,12.70
2021,12,01,04,07,12.70
2021,12,01,04,08,12.80
2021,12,01,04,09,12.90
2021,12,01,04,10,12.90
2021,12,01,04,11,12.90
2021,12,01,04,12,12.90
2021,12,01,04,13,12.90
2021,12,01,04,14,12.90
2021,12,01,04,15,12.90
2021,12,01,04,16,12.90
2021,12,01,04,17,12.90
2021,12,01,04,18,12.90
2021,12,01,04,19,12.80
2021,12,01,04,20,12.80
2021,12,01,04,21,12.70
2021,12,01,04,22,12.70
2021,12,01,04,23,12.70
2021,12,01,04,24,12.70
2021,12,01,04,25,12.70
2021,12,01,04,26,12.70
2021,12,01,04,27,12.70
2021,12,01,04,28,12.80
2021,12,01,04,29,12.70
2021,12,01,04,30,12.50
2021,12,01,04,31,12.30
2021,12,01,04,32,12.20
2021,12,01,04,33,12.10
2021,12,01,04,34,12.00
2021,12,01,04,35,11.90
2021,12,01,04,36,12.00
2021,12,01,04,37,12.10
2021,12,01,04,38,12.20
2021,12,01,04,39,12.30
2021,12,01,04,40,12.30
2021,12,01,04,41,12.30
2021,12,01,04,42,12.20
2021,12,01,04,43,12.20
2021,12,01,04,44,12.20
2021,12,01,04,45,12.20
2021,12,01,04,46,12.20
2021,12,01,04,47,12.10
2021,12,01,04,48,12.00
2021,12,01,04,49,11.90
2021,12,01,04,50,11.90
2021,12,01,04,51,11.80
2021,12,01,04,52,11.80
2021,12,01,04,53,11.90
2021,12,01,04,54,12.00
2021,12,01,04,55,12.20
2021,12,01,04,56,12.20
2021,12,01,04,57,12.20
2021,12,01,04,58,12.20
2021,12,01,04,59,12.10
2021,12,01,05,00,12.00
2021,12,01,05,01,12.00
2021,12,01,05,02,12.00
2021,12,01,05,03,12.00
2021,12,01,05,04,12.00
2021,12,01,05,05,11.90
2021,12,01,05,06,11.80
2021,12,01,05,07,11.80
2021,12,01,05,08,11.80
2021,12,01,05,09,11.80
2021,12,01,05,10,11.80
2021,12,01,05,11,11.80
2021,12,01,05,12,11.90
2021,12,01,05,13,12.00
2021,12,01,05,14,12.20
2021,12,01,05,15,12.40
2021,12,01,05,16,12.60
2021,12,01,05,17,12.70
2021,12,01,05,18,12.70
2021,12,01,05,19,12.70
2021,12,01,05,20,12.70
2021,12,01,05,21,12.80
2021,12,01,05,22,13.00
2021,12,01,05,23,13.20
2021,12,01,05,24,13.30
2021,12,01,05,25,13.50
2021,12,01,05,26,13.60
2021,12,01,05,27,13.60
2021,12,01,05,28,13.70
2021,12,01,05,29,13.80
2021,12,01,05,30,13.80
2021,12,01,05,31,13.90
2021,12,01,05,32,13.90
2021,12,01,05,33,14.00
2021,12,01,05,34,14.10
2021,12,01,05,35,14.10
2021,12,01,05,36,14.10
2021,12,01,05,37,14.10
2021,12,01,05,38,14.10
2021,12,01,05,39,14.00
2021,12,01,05,40,13.90
2021,12,01,05,41,13.80
2021,12,01,05,42,13.50
2021,12,01,05,43,13.20
2021,12,01,05,44,12.90
2021,12,01,05,45,12.70
2021,12,01,05,46,12.50
2021,12,01,05,47,12.40
2021,12,01,05,48,12.30
2021,12,01,05,49,12.20
2021,12,01,05,50,12.10
2021,12,01,05,51,12.10
2021,12,01,05,52,12.00
2021,12,01,05,53,11.90
2021,12,01,05,54,11.80
2021,12,01,05,55,11.80
2021,12,01,05,56,11.70
2021,12,01,05,57,11.70
2021,12,01,05,58,11.70
2021,12,01,05,59,11.60
2021,12,01,06,00,11.60
2021,12,01,06,01,11.60
2021,12,01,06,02,11.60
2021,12,01,06,03,11.60
2021,12,01,06,04,11.60
2021,12,01,06,05,11.50
2021,12,01,06,06,11.50
2021,12,01,06,07,11.50
2021,12,01,06,08,11.50
2021,12,01,06,09,11.40
2021,12,01,06,10,11.40
2021,12,01,06,11,11.40
2021,12,01,06,12,11.30
2021,12,01,06,13,11.30
2021,12,01,06,14,11.30
2021,12,01,06,15,11.30
2021,12,01,06,16,11.20
2021,12,01,06,17,11.20
2021,12,01,06,18,11.20
2021,12,01,06,19,11.20
2021,12,01,06,20,11.20
2021,12,01,06,21,11.10
2021,12,01,06,22,11.10
2021,12,01,06,23,11.10
2021,12,01,06,24,11.10
2021,12,01,06,25,11.10
2021,12,01,06,26,11.00
2021,12,01,06,27,11.00
2021,12,01,06,28,11.00
2021,12,01,06,29,11.00
2021,12,01,06,30,10.90
2021,12,01,06,31,10.90
2021,12,01,06,32,10.90
2021,12,01,06,33,10.90
2021,12,01,06,34,10.90
2021,12,01,06,35,10.90
2021,12,01,06,36,10.90
2021,12,01,06,37,10.80
2021,12,01,06,38,10.80
2021,12,01,06,39,10.80
2021,12,01,06,40,10.70
2021,12,01,06,41,10.80
2021,12,01,06,42,11.00
2021,12,01,06,43,11.20
2021,12,01,06,44,11.50
2021,12,01,06,45,11.80
2021,12,01,06,46,12.20
2021,12,01,06,47,12.50
2021,12,01,06,48,12.70
2021,12,01,06,49,12.90
2021,12,01,06,50,13.10
2021,12,01,06,51,13.30
2021,12,01,06,52,13.50
2021,12,01,06,53,13.60
2021,12,01,06,54,13.80
2021,12,01,06,55,13.90
2021,12,01,06,56,14.00
2021,12,01,06,57,14.10
2021,12,01,06,58,14.20
2021,12,01,06,59,14.10
2021,12,01,07,00,14.10
2021,12,01,07,01,14.00
2021,12,01,07,02,14.10
2021,12,01,07,03,14.10
2021,12,01,07,04,14.10
2021,12,01,07,05,14.10
2021,12,01,07,06,13.90
2021,12,01,07,07,13.80
2021,12,01,07,08,13.60
2021,12,01,07,09,13.50
2021,12,01,07,10,13.40
2021,12,01,07,11,13.30
2021,12,01,07,12,13.30
2021,12,01,07,13,13.40
2021,12,01,07,14,13.40
2021,12,01,07,15,13.50
2021,12,01,07,16,13.50
2021,12,01,07,17,13.60
2021,12,01,07,18,13.70
2021,12,01,07,19,13.70
2021,12,01,07,20,13.80
2021,12,01,07,21,13.90
2021,12,01,07,22,13.90
2021,12,01,07,23,13.90
2021,12,01,07,24,14.00
2021,12,01,07,25,14.00
2021,12,01,07,26,14.00
2021,12,01,07,27,14.10
2021,12,01,07,28,14.10
2021,12,01,07,29,14.20
2021,12,01,07,30,14.20
2021,12,01,07,31,14.20
2021,12,01,07,32,14.20
2021,12,01,07,33,14.10
2021,12,01,07,34,14.10
2021,12,01,07,35,14.10
2021,12,01,07,36,14.10
2021,12,01,07,37,14.00
2021,12,01,07,38,14.00
2021,12,01,07,39,13.90
2021,12,01,07,40,13.80
2021,12,01,07,41,13.50
2021,12,01,07,42,13.20
2021,12,01,07,43,12.90
2021,12,01,07,44,12.70
2021,12,01,07,45,12.50
2021,12,01,07,46,12.30
2021,12,01,07,47,12.20
2021,12,01,07,48,12.20
2021,12,01,07,49,12.10
2021,12,01,07,50,12.10
2021,12,01,07,51,12.10
2021,12,01,07,52,12.10
2021,12,01,07,53,12.00
2021,12,01,07,54,12.00
2021,12,01,07,55,12.00
2021,12,01,07,56,12.00
2021,12,01,07,57,12.00
2021,12,01,07,58,12.00
2021,12,01,07,59,12.00
2021,12,01,08,00,12.10
2021,12,01,08,01,12.10
2021,12,01,08,02,12.10
2021,12,01,08,03,12.20
2021,12,01,08,04,12.20
2021,12,01,08,05,12.20
2021,12,01,08,06,12.20
2021,12,01,08,07,12.20
2021,12,01,08,08,12.20
2021,12,01,08,09,12.30
2021,12,01,08,10,12.50
2021,12,01,08,11,12.60
2021,12,01,08,12,12.70
2021,12,01,08,13,12.80
2021,12,01,08,14,13.00
2021,12,01,08,15,13.30
2021,12,01,08,16,13.60
2021,12,01,08,17,13.90
2021,12,01,08,18,14.20
2021,12,01,08,19,14.40
2021,12,01,08,20,14.50
2021,12,01,08,21,14.60
2021,12,01,08,22,14.60
2021,12,01,08,23,14.70
2021,12,01,08,24,14.70
2021,12,01,08,25,14.80
2021,12,01,08,26,15.00
2021,12,01,08,27,15.00
2021,12,01,08,28,15.00
2021,12,01,08,29,15.00
2021,12,01,08,30,15.00
2021,12,01,08,31,15.00
2021,12,01,08,32,15.00
2021,12,01,08,33,15.00
2021,12,01,08,34,15.00
2021,12,01,08,35,15.00
2021,12,01,08,36,15.00
2021,12,01,08,37,15.00
2021,12,01,08,38,15.00
2021,12,01,08,39,15.00
2021,12,01,08,40,15.00
2021,12,01,08,41,15.00
2021,12,01,08,42,15.00
2021,12,01,08,43,15.00
2021,12,01,08,44,15.00
2021,12,01,08,45,15.00
2021,12,01,08,46,15.00
2021,12,01,08,47,15.00
2021,12,01,08,48,15.00
2021,12,01,08,49,15.00
2021,12,01,08,50,15.00
2021,12,01,08,51,15.00
2021,12,01,08,52,15.00
2021,12,01,08,53,15.00
2021,12,01,08,54,15.00
2021,12,01,08,55,15.00
2021,12,01,08,56,15.00
2021,12,01,08,57,15.00
2021,12,01,08,58,15.00
2021,12,01,08,59,15.00
2021,12,01,09,00,14.90
2021,12,01,09,01,14.90
2021,12,01,09,02,14.90
2021,12,01,09,03,14.90
2021,12,01,09,04,14.90
2021,12,01,09,05,14.90
2021,12,01,09,06,14.90
2021,12,01,09,07,14.90
2021,12,01,09,08,14.90
2021,12,01,09,09,14.90
2021,12,01,09,10,14.80
2021,12,01,09,11,14.80
2021,12,01,09,12,14.80
2021,12,01,09,13,14.80
2021,12,01,09,14,14.80
2021,12,01,09,15,14.70
2021,12,01,09,16,14.70
2021,12,01,09,17,14.70
2021,12,01,09,18,14.70
2021,12,01,09,19,14.70
2021,12,01,09,20,14.70
2021,12,01,09,21,14.60
2021,12,01,09,22,14.60
2021,12,01,09,23,14.60
2021,12,01,09,24,14.60
2021,12,01,09,25,14.50
2021,12,01,09,26,14.50
2021,12,01,09,27,14.40
2021,12,01,09,28,14.30
2021,12,01,09,29,14.30
2021,12,01,09,30,14.20
2021,12,01,09,31,14.20
2021,12,01,09,32,14.10
2021,12,01,09,33,14.00
2021,12,01,09,34,14.00
2021,12,01,09,35,13.90
2021,12,01,09,36,14.00
2021,12,01,09,37,14.00
2021,12,01,09,38,14.00
2021,12,01,09,39,14.10
2021,12,01,09,40,14.20
2021,12,01,09,41,14.30
2021,12,01,09,42,14.40
2021,12,01,09,43,14.40
2021,12,01,09,44,14.50
2021,12,01,09,45,14.60
2021,12,01,09,46,14.60
2021,12,01,09,47,14.60
2021,12,01,09,48,14.60
2021,12,01,09,49,14.60
2021,12,01,09,50,14.60
2021,12,01,09,51,14.60
2021,12,01,09,52,14.60
2021,12,01,09,53,14.70
2021,12,01,09,54,14.80
2021,12,01,09,55,14.90
2021,12,01,09,56,14.90
2021,12,01,09,57,15.00
2021,12,01,09,58,15.00
2021,12,01,09,59,15.00
2021,12,01,10,00,15.00
2021,12,01,10,01,15.00
2021,12,01,10,02,15.00
2021,12,01,10,03,15.00
2021,12,01,10,04,15.00
2021,12,01,10,05,14.80
2021,12,01,10,06,14.80
2021,12,01,10,07,14.70
2021,12,01,10,08,14.70
2021,12,01,10,09,14.60
2021,12,01,10,10,14.60
2021,12,01,10,11,14.50
2021,12,01,10,12,14.50
2021,12,01,10,13,14.50
2021,12,01,10,14,14.50
2021,12,01,10,15,14.40
2021,12,01,10,16,14.40
2021,12,01,10,17,14.40
2021,12,01,10,18,14.30
2021,12,01,10,19,14.30
2021,12,01,10,20,14.30
2021,12,01,10,21,14.30
2021,12,01,10,22,14.20
2021,12,01,10,23,14.20
2021,12,01,10,24,14.20
2021,12,01,10,25,14.20
2021,12,01,10,26,14.30
2021,12,01,10,27,14.30
2021,12,01,10,28,14.30
2021,12,01,10,29,14.30
2021,12,01,10,30,14.30
2021,12,01,10,31,14.30
2021,12,01,10,32,14.30
2021,12,01,10,33,14.30
2021,12,01,10,34,14.30
2021,12,01,10,35,14.30
2021,12,01,10,36,14.40
2021,12,01,10,37,14.40
2021,12,01,10,38,14.40
2021,12,01,10,39,14.40
2021,12,01,10,40,14.40
2021,12,01,10,41,14.40
2021,12,01,10,42,14.40
2021,12,01,10,43,14.40
2021,12,01,10,44,14.40
2021,12,01,10,45,14.30
2021,12,01,10,46,14.30
2021,12,01,10,47,14.30
2021,12,01,10,48,14.30
2021,12,01,10,49,14.40
2021,12,01,10,50,14.40
2021,12,01,10,51,14.40
2021,12,01,10,52,14.40
2021,12,01,10,53,14.40
2021,12,01,10,54,14.40
2021,12,01,10,55,14.40
2021,12,01,10,56,14.40
2021,12,01,10,57,14.40
2021,12,01,10,58,14.50
2021,12,01,10,59,14.50
2021,12,01,11,00,14.50
2021,12,01,11,01,14.60
2021,12,01,11,02,14.60
2021,12,01,11,03,14.60
2021,12,01,11,04,14.70
2021,12,01,11,05,14.70
2021,12,01,11,06,14.70
2021,12,01,11,07,14.80
2021,12,01,11,08,14.80
2021,12,01,11,09,14.90
2021,12,01,11,10,14.90
2021,12,01,11,11,15.00
2021,12,01,11,12,15.00
2021,12,01,11,13,15.00
2021,12,01,11,14,15.00
2021,12,01,11,15,15.00
2021,12,01,11,16,15.00
2021,12,01,11,17,15.00
2021,12,01,11,18,15.00
2021,12,01,11,19,15.10
2021,12,01,11,20,15.20
2021,12,01,11,21,15.20
2021,12,01,11,22,15.30
2021,12,01,11,23,15.30
2021,12,01,11,24,15.40
2021,12,01,11,25,15.40
2021,12,01,11,26,15.50
2021,12,01,11,27,15.50
2021,12,01,11,28,15.60
2021,12,01,11,29,15.70
2021,12,01,11,30,15.80
2021,12,01,11,31,15.80
2021,12,01,11,32,15.80
2021,12,01,11,33,15.80
2021,12,01,11,34,15.70
2021,12,01,11,35,15.70
2021,12,01,11,36,15.70
2021,12,01,11,37,15.70
2021,12,01,11,38,15.70
2021,12,01,11,39,15.70
2021,12,01,11,40,15.70
2021,12,01,11,41,15.80
2021,12,01,11,42,15.70
2021,12,01,11,43,15.80
2021,12,01,11,44,15.70
2021,12,01,11,45,15.70
2021,12,01,11,46,15.70
2021,12,01,11,47,15.70
2021,12,01,11,48,15.70
2021,12,01,11,49,15.70
2021,12,01,11,50,15.70
2021,12,01,11,51,15.70
2021,12,01,11,52,15.70
2021,12,01,11,53,15.70
2021,12,01,11,54,15.70
2021,12,01,11,55,15.70
2021,12,01,11,56,15.70
2021,12,01,11,57,15.70
2021,12,01,11,58,15.70
2021,12,01,11,59,15.70
2021,12,01,12,00,15.70
2021,12,01,12,01,15.60
2021,12,01,12,02,15.50
2021,12,01,12,03,15.50
2021,12,01,12,04,15.40
2021,12,01,12,05,15.50
2021,12,01,12,06,15.50
2021,12,01,12,07,15.40
2021,12,01,12,08,15.40
2021,12,01,12,09,15.40
2021,12,01,12,10,15.40
2021,12,01,12,11,15.40
2021,12,01,12,12,15.30
2021,12,01,12,13,15.30
2021,12,01,12,14,15.30
2021,12,01,12,15,15.30
2021,12,01,12,16,15.30
2021,12,01,12,17,15.30
2021,12,01,12,18,15.30
2021,12,01,12,19,15.40
2021,12,01,12,20,15.40
2021,12,01,12,21,15.40
2021,12,01,12,22,15.40
2021,12,01,12,23,15.40
2021,12,01,12,24,15.40
2021,12,01,12,25,15.40
2021,12,01,12,26,15.40
2021,12,01,12,27,15.50
2021,12,01,12,28,15.50
2021,12,01,12,29,15.50
2021,12,01,12,30,15.60
2021,12,01,12,31,15.50
2021,12,01,12,32,15.50
2021,12,01,12,33,15.50
2021,12,01,12,34,15.40
2021,12,01,12,35,15.40
2021,12,01,12,36,15.40
2021,12,01,12,37,15.30
2021,12,01,12,38,15.30
2021,12,01,12,39,15.30
2021,12,01,12,40,15.30
2021,12,01,12,41,15.30
2021,12,01,12,42,15.30
2021,12,01,12,43,15.30
2021,12,01,12,44,15.30
2021,12,01,12,45,15.30
2021,12,01,12,46,15.30
2021,12,01,12,47,15.20
2021,12,01,12,48,15.20
2021,12,01,12,49,15.20
2021,12,01,12,50,15.20
2021,12,01,12,51,15.20
2021,12,01,12,52,15.20
2021,12,01,12,53,15.10
2021,12,01,12,54,15.10
2021,12,01,12,55,15.10
2021,12,01,12,56,15.10
2021,12,01,12,57,15.00
2021,12,01,12,58,15.10
2021,12,01,12,59,15.10
2021,12,01,13,00,15.20
2021,12,01,13,01,15.20
2021,12,01,13,02,15.20
2021,12,01,13,03,15.20
2021,12,01,13,04,15.20
2021,12,01,13,05,15.20
2021,12,01,13,06,15.20
2021,12,01,13,07,15.20
2021,12,01,13,08,15.20
2021,12,01,13,09,15.20
2021,12,01,13,10,15.20
2021,12,01,13,11,15.20
2021,12,01,13,12,15.20
2021,12,01,13,13,15.10
2021,12,01,13,14,15.00
2021,12,01,13,15,15.00
2021,12,01,13,16,15.00
2021,12,01,13,17,15.00
2021,12,01,13,18,15.00
2021,12,01,13,19,15.00
2021,12,01,13,20,15.00
2021,12,01,13,21,15.00
2021,12,01,13,22,15.00
2021,12,01,13,23,15.00
2021,12,01,13,24,15.00
2021,12,01,13,25,15.00
2021,12,01,13,26,15.00
2021,12,01,13,27,15.00
2021,12,01,13,28,15.00
2021,12,01,13,29,15.00
2021,12,01,13,30,15.00
2021,12,01,13,31,14.90
2021,12,01,13,32,14.90
2021,12,01,13,33,14.90
2021,12,01,13,34,14.90
2021,12,01,13,35,14.90
2021,12,01,13,36,14.90
2021,12,01,13,37,14.90
2021,12,01,13,38,14.80
2021,12,01,13,39,14.90
2021,12,01,13,40,14.90
2021,12,01,13,41,14.80
2021,12,01,13,42,14.90
2021,12,01,13,43,14.90
2021,12,01,13,44,14.90
2021,12,01,13,45,15.00
2021,12,01,13,46,15.00
2021,12,01,13,47,14.90
2021,12,01,13,48,14.80
2021,12,01,13,49,14.80
2021,12,01,13,50,14.80
2021,12,01,13,51,14.70
2021,12,01,13,52,14.70
2021,12,01,13,53,14.70
2021,12,01,13,54,14.70
2021,12,01,13,55,14.70
2021,12,01,13,56,14.70
2021,12,01,13,57,14.80
2021,12,01,13,58,14.80
2021,12,01,13,59,14.80
2021,12,01,14,00,14.80
2021,12,01,14,01,14.80
2021,12,01,14,02,14.80
2021,12,01,14,03,14.70
2021,12,01,14,04,14.70
2021,12,01,14,05,14.80
2021,12,01,14,06,14.80
2021,12,01,14,07,14.80
2021,12,01,14,08,14.80
2021,12,01,14,09,14.80
2021,12,01,14,10,14.80
2021,12,01,14,11,14.90
2021,12,01,14,12,15.00
2021,12,01,14,13,15.00
2021,12,01,14,14,15.00
2021,12,01,14,15,15.00
2021,12,01,14,16,15.00
2021,12,01,14,17,15.00
2021,12,01,14,18,15.00
2021,12,01,14,19,15.00
2021,12,01,14,20,15.00
2021,12,01,14,21,15.00
2021,12,01,14,22,15.00
2021,12,01,14,23,14.90
2021,12,01,14,24,14.90
2021,12,01,14,25,14.90
2021,12,01,14,26,14.90
2021,12,01,14,27,14.90
2021,12,01,14,28,14.90
2021,12,01,14,29,14.90
2021,12,01,14,30,14.90
2021,12,01,14,31,14.80
2021,12,01,14,32,14.80
2021,12,01,14,33,14.80
2021,12,01,14,34,14.80
2021,12,01,14,35,14.80
2021,12,01,14,36,14.80
2021,12,01,14,37,14.80
2021,12,01,14,38,14.80
2021,12,01,14,39,14.80
2021,12,01,14,40,14.80
2021,12,01,14,41,14.70
2021,12,01,14,42,14.70
2021,12,01,14,43,14.70
2021,12,01,14,44,14.70
2021,12,01,14,45,14.70
2021,12,01,14,46,14.70
2021,12,01,14,47,14.70
2021,12,01,14,48,14.70
2021,12,01,14,49,14.70
2021,12,01,14,50,14.70
2021,12,01,14,51,14.70
2021,12,01,14,52,14.70
2021,12,01,14,53,14.70
2021,12,01,14,54,14.70
2021,12,01,14,55,14.60
2021,12,01,14,56,14.60
2021,12,01,14,57,14.60
2021,12,01,14,58,14.60
2021,12,01,14,59,14.60
2021,12,01,15,00,14.60
2021,12,01,15,01,14.60
2021,12,01,15,02,14.60
2021,12,01,15,03,14.70
2021,12,01,15,04,14.70
2021,12,01,15,05,14.60
2021,12,01,15,06,14.70
2021,12,01,15,07,14.70
2021,12,01,15,08,14.70
2021,12,01,15,09,14.70
2021,12,01,15,10,14.70
2021,12,01,15,11,14.70
2021,12,01,15,12,14.70
2021,12,01,15,13,14.60
2021,12,01,15,14,14.60
2021,12,01,15,15,14.60
2021,12,01,15,16,14.60
2021,12,01,15,17,14.60
2021,12,01,15,18,14.60
2021,12,01,15,19,14.60
2021,12,01,15,20,14.60
2021,12,01,15,21,14.60
2021,12,01,15,22,14.60
2021,12,01,15,23,14.60
2021,12,01,15,24,14.60
2021,12,01,15,25,14.60
2021,12,01,15,26,14.60
2021,12,01,15,27,14.60
2021,12,01,15,28,14.60
2021,12,01,15,29,14.60
2021,12,01,15,30,14.70
2021,12,01,15,31,14.70
2021,12,01,15,32,14.70
2021,12,01,15,33,14.70
2021,12,01,15,34,14.70
2021,12,01,15,35,14.60
2021,12,01,15,36,14.60
2021,12,01,15,37,14.60
2021,12,01,15,38,14.60
2021,12,01,15,39,14.60
2021,12,01,15,40,14.60
2021,12,01,15,41,14.60
2021,12,01,15,42,14.60
2021,12,01,15,43,14.60
2021,12,01,15,44,14.60
2021,12,01,15,45,14.60
2021,12,01,15,46,14.50
2021,12,01,15,47,14.50
2021,12,01,15,48,14.50
2021,12,01,15,49,14.50
2021,12,01,15,50,14.50
2021,12,01,15,51,14.50
2021,12,01,15,52,14.50
2021,12,01,15,53,14.40
2021,12,01,15,54,14.40
2021,12,01,15,55,14.30
2021,12,01,15,56,14.30
2021,12,01,15,57,14.30
2021,12,01,15,58,14.30
2021,12,01,15,59,14.20
2021,12,01,16,00,14.20
2021,12,01,16,01,14.20
2021,12,01,16,02,14.20
2021,12,01,16,03,14.20
2021,12,01,16,04,14.20
2021,12,01,16,05,14.10
2021,12,01,16,06,14.10
2021,12,01,16,07,14.10
2021,12,01,16,08,14.10
2021,12,01,16,09,14.10
2021,12,01,16,10,14.10
2021,12,01,16,11,14.10
2021,12,01,16,12,14.10
2021,12,01,16,13,14.00
2021,12,01,16,14,14.00
2021,12,01,16,15,14.00
2021,12,01,16,16,14.00
2021,12,01,16,17,14.00
2021,12,01,16,18,14.00
2021,12,01,16,19,14.00
2021,12,01,16,20,14.00
2021,12,01,16,21,14.00
2021,12,01,16,22,14.00
2021,12,01,16,23,14.00
2021,12,01,16,24,14.00
2021,12,01,16,25,14.00
2021,12,01,16,26,14.00
2021,12,01,16,27,14.00
2021,12,01,16,28,14.00
2021,12,01,16,29,14.00
2021,12,01,16,30,14.00
2021,12,01,16,31,14.00
2021,12,01,16,32,14.00
2021,12,01,16,33,14.00
2021,12,01,16,34,14.00
2021,12,01,16,35,14.00
2021,12,01,16,36,13.90
2021,12,01,16,37,13.90
2021,12,01,16,38,13.90
2021,12,01,16,39,13.90
2021,12,01,16,40,13.90
2021,12,01,16,41,13.80
2021,12,01,16,42,13.80
2021,12,01,16,43,13.80
2021,12,01,16,44,13.80
2021,12,01,16,45,13.70
2021,12,01,16,46,13.70
2021,12,01,16,47,13.70
2021,12,01,16,48,13.70
2021,12,01,16,49,13.60
2021,12,01,16,50,13.60
2021,12,01,16,51,13.60
2021,12,01,16,52,13.60
2021,12,01,16,53,13.60
2021,12,01,16,54,13.60
2021,12,01,16,55,13.50
2021,12,01,16,56,13.50
2021,12,01,16,57,13.50
2021,12,01,16,58,13.50
2021,12,01,16,59,13.40
2021,12,01,17,00,13.40
2021,12,01,17,01,13.40
2021,12,01,17,02,13.40
2021,12,01,17,03,13.40
2021,12,01,17,04,13.40
2021,12,01,17,05,13.40
2021,12,01,17,06,13.30
2021,12,01,17,07,13.30
2021,12,01,17,08,13.30
2021,12,01,17,09,13.40
2021,12,01,17,10,13.40
2021,12,01,17,11,13.40
2021,12,01,17,12,13.40
2021,12,01,17,13,13.40
2021,12,01,17,14,13.40
2021,12,01,17,15,13.40
2021,12,01,17,16,13.50
2021,12,01,17,17,13.50
2021,12,01,17,18,13.40
2021,12,01,17,19,13.40